TimePST,TemperatureF,Dew PointF,Humidity,Sea Level PressureIn,VisibilityMPH,Wind Direction,Wind SpeedMPH,Gust SpeedMPH,PrecipitationIn,Events,Conditions,WindDirDegrees,DateUTC
12:52 AM,63.0,48.0,58,29.69,10.0,NW,8.1,-,N/A,,Clear,310,2013-11-04 08:52:00
1:52 AM,63.0,48.0,58,29.69,10.0,NW,10.4,-,N/A,,Clear,320,2013-11-04 09:52:00
2:52 AM,64.0,48.0,56,29.69,10.0,NNW,13.8,-,N/A,,Clear,330,2013-11-04 10:52:00
3:52 AM,63.0,48.0,58,29.68,10.0,NNW,4.6,-,N/A,,Clear,330,2013-11-04 11:52:00
4:52 AM,61.0,48.0,62,29.69,10.0,NW,4.6,-,N/A,,Clear,310,2013-11-04 12:52:00
5:52 AM,55.9,46.9,72,29.70,10.0,NW,3.5,-,N/A,,Clear,310,2013-11-04 13:52:00
6:52 AM,62.1,46.9,58,29.73,10.0,NW,8.1,-,N/A,,Clear,320,2013-11-04 14:52:00
7:52 AM,64.9,46.9,52,29.75,10.0,NNW,10.4,-,N/A,,Clear,330,2013-11-04 15:52:00
8:52 AM,66.9,46.9,49,29.76,10.0,West,6.9,-,N/A,,Clear,280,2013-11-04 16:52:00
9:52 AM,71.1,45.0,39,29.75,10.0,Variable,6.9,-,N/A,,Clear,0,2013-11-04 17:52:00
10:52 AM,73.9,41.0,30,29.74,10.0,Variable,4.6,-,N/A,,Clear,0,2013-11-04 18:52:00
11:52 AM,75.0,42.1,31,29.71,10.0,Calm,Calm,-,N/A,,Clear,0,2013-11-04 19:52:00
12:52 PM,77.0,39.0,25,29.69,10.0,WNW,6.9,-,N/A,,Clear,300,2013-11-04 20:52:00
1:52 PM,78.1,39.0,25,29.69,10.0,NNW,11.5,-,N/A,,Clear,340,2013-11-04 21:52:00
2:52 PM,77.0,39.0,25,29.69,10.0,NNW,11.5,-,N/A,,Clear,330,2013-11-04 22:52:00
3:52 PM,75.0,42.1,31,29.70,10.0,NW,13.8,-,N/A,,Clear,320,2013-11-04 23:52:00
4:52 PM,72.0,43.0,35,29.71,10.0,NW,11.5,-,N/A,,Overcast,310,2013-11-05 00:52:00
5:52 PM,70.0,43.0,38,29.74,10.0,NW,11.5,-,N/A,,Mostly Cloudy,310,2013-11-05 01:52:00
6:52 PM,68.0,44.1,42,29.78,10.0,NW,12.7,-,N/A,,Scattered Clouds,310,2013-11-05 02:52:00
7:52 PM,66.9,43.0,42,29.80,10.0,NW,10.4,-,N/A,,Clear,320,2013-11-05 03:52:00
8:52 PM,64.9,45.0,48,29.82,10.0,NW,11.5,-,N/A,,Clear,320,2013-11-05 04:52:00
9:52 PM,64.9,44.1,47,29.84,10.0,NW,12.7,-,N/A,,Clear,320,2013-11-05 05:52:00
10:52 PM,63.0,42.1,46,29.86,10.0,NW,8.1,-,N/A,,Clear,320,2013-11-05 06:52:00
11:52 PM,62.1,41.0,46,29.87,10.0,NNW,9.2,-,N/A,,Clear,340,2013-11-05 07:52:00